Regional Weather Roundup
Issued by NWS Charleston, SC

Current Version | Previous Version | Text Only | Print | Product List | Glossary Off
Versions: 1 2 3 4 5 6 7 8 9 10 11 12 13 14 15 16 17 18 19 20 21 22 23 24 25 26 27 28 29 30 31 32 33 34 35 36 37 38 39 40 41 42 43 44 45 46 47 48 49 50

000
ASUS42 KCHS 220010
RWRCHS

REGIONAL WEATHER ROUNDUP
NATIONAL WEATHER SERVICE CHARLESTON SC
800 PM EDT TUE OCT 21 2014

NOTE: "FAIR" INDICATES FEW OR NO CLOUDS BELOW 12,000 FEET WITH NO
SIGNIFICANT WEATHER AND/OR OBSTRUCTIONS TO VISIBILITY.

NOT ALL STATIONS ARE QUALITY CONTROLLED BY THE NATIONAL
WEATHER SERVICE. USE DATA WITH CAUTION...ESPECIALLY
DEWPOINT OBSERVATIONS.

SCZ027-030-031-034>040-042>050-220100-
...SOUTH CAROLINA...

CITY           SKY/WX    TMP DP  RH WIND       PRES   REMARKS
N CHARLESTON   CLEAR     66  55  67 CALM      29.90R
6HR MIN TEMP:  65; 6HR MAX TEMP:  81;

WATERFRONT PRK NOT AVBL
FORT JOHNSON   NOT AVBL
JOHNS ISLAND   CLEAR     70  63  78 CALM      29.90R
PINOPOLIS      NOT AVBL
MONCKS CORNER  FAIR      61  59  94 CALM      29.90R
SUMMERVILLE    FAIR      61  59  94 CALM      29.91R
BEAUFORT MCAS  CLEAR     66  58  75 SW5       29.91R
6HR MIN TEMP:  66; 6HR MAX TEMP:  79;

BEAUFORT ARPT  FAIR      64  61  88 S3        29.90R
HILTON HEAD IS CLEAR     64  61  88 CALM      29.92R
GEORGETOWN     NOT AVBL
WALTERBORO     CLEAR     63  63 100 CALM      29.91R
ORANGEBURG     PTCLDY    64  51  62 CALM      29.90R
6HR MIN TEMP:  63; 6HR MAX TEMP:  79;

BARNWELL       FAIR      63  52  67 CALM      29.92R
AIKEN          FAIR      66  52  59 CALM      29.95R
MANNING        FAIR      61  59  94 CALM      29.89R
KINGSTREE      NOT AVBL
COLUMBIA       PTCLDY    65  52  62 W5        29.89R
6HR MIN TEMP:  64; 6HR MAX TEMP:  80;

SUMTER         MOCLDY    68  52  56 W3        29.88R
6HR MIN TEMP:  68; 6HR MAX TEMP:  78;

FLORENCE       CLOUDY    63  52  67 CALM      29.88R
6HR MIN TEMP:  63; 6HR MAX TEMP:  78;

MYRTLE BEACH   CLEAR     66  54  63 NW5       29.88R
N MYRTLE BEACH CLEAR     66  61  84 W3        29.87R
6HR MIN TEMP:  66; 6HR MAX TEMP:  77;


$$

GAZ063-065-086>088-099>101-113>116-118-119-134-136>141-150-220100-
...GEORGIA...

CITY           SKY/WX    TMP DP  RH WIND       PRES   REMARKS
SAVANNAH ARPT  CLEAR     69  57  65 SW3       29.91R
6HR MIN TEMP:  69; 6HR MAX TEMP:  81;

HUNTER AAF     CLEAR     68  57  69 SW3       29.90R
6HR MIN TEMP:  66; 6HR MAX TEMP:  79;

FORT STEWART   CLEAR     65  56  72 CALM      29.91R
6HR MIN TEMP:  65; 6HR MAX TEMP:  80;

STATESBORO     NOT AVBL
SYLVANIA       CLEAR     66  58  74 CALM      29.92R
CLAXTON        FAIR      63  59  88 CALM      29.93R
THOMSON        CLEAR     65  58  75 W6        29.97R
AUGUSTA-BUSH   CLEAR     68  51  54 W6        29.91R
6HR MIN TEMP:  67; 6HR MAX TEMP:  81;

AUGUSTA-DANIEL CLEAR     72  51  47 W7        29.92R
SWAINSBORO     FAIR      64  54  68 CALM      29.94R HAZE
VIDALIA        CLEAR     66  52  59 CALM      29.94R
ALMA           CLEAR     63  54  72 CALM      29.93R
6HR MIN TEMP:  63; 6HR MAX TEMP:  81;

WAYCROSS       CLEAR     68  60  75 CALM      29.93R
JESUP          FAIR      68  61  77 CALM      29.93R
BRUNSWICK      CLEAR     64  59  82 CALM      29.93R
SAINT SIMONS   CLEAR     69  64  84 CALM      29.92R
6HR MIN TEMP:  69; 6HR MAX TEMP:  81;


$$

SCZ027-028-034-036>038-045-046-048>050-GAZ119-141-220100-
...LAKE AND SUPPLEMENTAL COASTAL OBSERVATIONS...

STATION/POSITION TIME  TEMP    WIND        PRES    WAVE   SWELL
                       AIR SEA DIR/SP/G            HT/PER HT/PER/DIR
                 (UTC) (F)     (DEG/KT/KT) (MB)    (FT/S) (FT/S/D)
UPR LAKE MARION  NOT AVBL
WINYAH BAY       2300   71     230/  3     1011.0S
LAKE MURRAY      2300   71     310/  2/  5 1011.9R
ACE BASIN NERRS  2300   70        CALM     1012.0S
FORT PULASKI     0000   72     200/  3/  4 1013.1R
SAPELO ISLAND    NOT AVBL

$$

ANZ835-935-AMZ111-154-330-350-352-354-374-450-454-472-220100-
...C-MAN AND BUOY OBSERVATIONS...

STATION/POSITION TIME  TEMP    WIND        PRES    WAVE   SWELL
                       AIR SEA DIR/SP/G            HT/PER HT/PER/DIR
                 (UTC) (F)     (DEG/KT/KT) (MB)    (FT/S) (FT/S/D)
FOLLY BEACH CMAN 2300   72     230/  9/ 11 1012.4R
BUOY 41004       0000   75 79  240/ 14/ 16 1011.9R   2/ 9   2/ 9
BUOY 41008       0000   74 76  200/  6/  6 1012.9R   1/ 9   2/100/ 9
5E ST. MARYS GA  0000      78                N/A     2/10
FRYING PAN BUOY  0000   73 76  240/ 12/ 14 1012.4R   2/10   2/140/10
BUOY 41025       0000   72     260/ 16/ 19 1010.7R   3/ 8   2/100/ 8
CAPE LOOKOUT NC  2300   71     220/  7/  9 1010.7R
BUOY 41002       NOT AVBL
BUOY 41010       0000   77 80  190/ 12/ 14 1014.0R   2/ 9   2/ 80/ 9
BUOY 41012       NOT AVBL
ST AUGUSTINE FL  0000   76     170/  3/  4 1014.2R
CAPERS NEARSHORE 2300   73     230/ 12/ 14   N/A
FRIPP NEARSHORE  NOT AVBL


$$



USA.gov is the U.S. government's official web portal to all federal, state and local government web resources and services.